Time,TemperatureF,DewpointF,PressureIn,WindDirection,WindDirectionDegrees,WindSpeedMPH,WindSpeedGustMPH,Humidity,HourlyPrecipIn,Conditions,Clouds,dailyrainin,SoftwareType,DateUTC
2013-08-03 00:03:00,94.0,57.9,29.44,West,270,4.7,8.9,30,0.00,,,0.00,WUHU216HW,2013-08-02 21:03:00,
2013-08-03 00:08:00,94.3,57.1,29.44,SSW,203,4.9,8.1,29,0.00,,,0.00,WUHU216HW,2013-08-02 21:08:00,
2013-08-03 00:13:00,94.5,57.2,29.44,WNW,293,6.5,7.2,29,0.00,,,0.00,WUHU216HW,2013-08-02 21:13:00,
2013-08-03 00:18:00,94.5,57.2,29.44,West,270,6.3,7.4,29,0.00,,,0.00,WUHU216HW,2013-08-02 21:18:00,
2013-08-03 00:23:00,94.3,57.1,29.43,West,270,4.7,8.5,29,0.00,,,0.00,WUHU216HW,2013-08-02 21:23:00,
2013-08-03 00:28:00,94.0,57.9,29.43,WSW,248,4.0,8.5,30,0.00,,,0.00,WUHU216HW,2013-08-02 21:28:00,
2013-08-03 00:33:00,94.0,57.9,29.43,West,270,4.7,6.9,30,0.00,,,0.00,WUHU216HW,2013-08-02 21:33:00,
2013-08-03 00:38:00,93.6,58.4,29.43,West,270,7.2,7.2,31,0.00,,,0.00,WUHU216HW,2013-08-02 21:38:00,
2013-08-03 00:43:00,93.4,58.2,29.42,West,270,6.3,7.4,31,0.00,,,0.00,WUHU216HW,2013-08-02 21:43:00,
2013-08-03 00:48:00,93.4,58.2,29.42,West,270,4.9,7.6,31,0.00,,,0.00,WUHU216HW,2013-08-02 21:48:00,
2013-08-03 00:53:00,93.2,58.9,29.42,WNW,293,6.0,8.5,32,0.00,,,0.00,WUHU216HW,2013-08-02 21:53:00,
2013-08-03 00:58:00,93.2,58.9,29.42,West,270,8.3,10.1,32,0.00,,,0.00,WUHU216HW,2013-08-02 21:58:00,
2013-08-03 01:03:00,93.1,58.7,29.42,West,270,7.8,10.1,32,0.00,,,0.00,WUHU216HW,2013-08-02 22:03:00,
2013-08-03 01:08:00,92.9,58.6,29.42,West,270,6.3,8.9,32,0.00,,,0.00,WUHU216HW,2013-08-02 22:08:00,
2013-08-03 01:13:00,92.9,58.6,29.42,WNW,293,6.5,9.2,32,0.00,,,0.00,WUHU216HW,2013-08-02 22:13:00,
2013-08-03 01:18:00,92.7,58.4,29.42,WNW,293,6.9,9.2,32,0.00,,,0.00,WUHU216HW,2013-08-02 22:18:00,
2013-08-03 01:23:00,92.7,58.4,29.42,West,270,9.2,9.2,32,0.00,,,0.00,WUHU216HW,2013-08-02 22:23:00,
2013-08-03 01:28:00,92.5,59.0,29.42,WNW,293,6.7,9.2,33,0.00,,,0.00,WUHU216HW,2013-08-02 22:28:00,
2013-08-03 01:33:00,92.3,58.2,29.42,West,270,8.9,9.2,32,0.00,,,0.00,WUHU216HW,2013-08-02 22:33:00,
2013-08-03 01:38:00,92.2,58.0,29.42,WNW,293,8.7,8.9,32,0.00,,,0.00,WUHU216HW,2013-08-02 22:38:00,
2013-08-03 01:43:00,92.0,57.9,29.42,WSW,248,6.9,9.2,32,0.00,,,0.00,WUHU216HW,2013-08-02 22:43:00,
2013-08-03 01:48:00,91.8,58.5,29.42,WNW,293,6.9,9.2,33,0.00,,,0.00,WUHU216HW,2013-08-02 22:48:00,
2013-08-03 01:53:00,91.8,59.3,29.42,West,270,6.5,8.7,34,0.00,,,0.00,WUHU216HW,2013-08-02 22:53:00,
2013-08-03 01:58:00,91.8,59.3,29.42,WNW,293,6.3,7.8,34,0.00,,,0.00,WUHU216HW,2013-08-02 22:58:00,
2013-08-03 02:03:00,91.8,60.0,29.42,WNW,293,6.5,8.1,35,0.00,,,0.00,WUHU216HW,2013-08-02 23:03:00,
2013-08-03 02:08:00,91.6,60.0,29.42,NW,315,6.5,9.2,35,0.00,,,0.00,WUHU216HW,2013-08-02 23:08:00,
2013-08-03 02:13:00,91.6,60.0,29.42,West,270,4.0,9.2,35,0.00,,,0.00,WUHU216HW,2013-08-02 23:13:00,
2013-08-03 02:18:00,91.8,60.0,29.42,WSW,248,4.9,7.4,35,0.00,,,0.00,WUHU216HW,2013-08-02 23:18:00,
2013-08-03 02:23:00,92.2,59.6,29.42,West,270,4.0,9.2,34,0.00,,,0.00,WUHU216HW,2013-08-02 23:23:00,
2013-08-03 02:28:00,92.2,59.6,29.42,West,270,4.7,9.2,34,0.00,,,0.00,WUHU216HW,2013-08-02 23:28:00,
2013-08-03 02:33:00,92.2,60.4,29.42,WSW,248,5.6,7.8,35,0.00,,,0.00,WUHU216HW,2013-08-02 23:33:00,
2013-08-03 02:38:00,92.2,60.4,29.42,West,270,6.0,7.8,35,0.00,,,0.00,WUHU216HW,2013-08-02 23:38:00,
2013-08-03 02:43:00,92.0,60.2,29.42,West,270,7.6,7.6,35,0.00,,,0.00,WUHU216HW,2013-08-02 23:43:00,
2013-08-03 02:48:00,91.8,60.0,29.42,WSW,248,7.6,7.6,35,0.00,,,0.00,WUHU216HW,2013-08-02 23:48:00,
2013-08-03 02:53:00,91.8,60.0,29.42,West,270,6.5,7.8,35,0.00,,,0.00,WUHU216HW,2013-08-02 23:53:00,
2013-08-03 02:58:00,91.8,60.0,29.42,West,270,4.7,8.7,35,0.00,,,0.00,WUHU216HW,2013-08-02 23:58:00,
2013-08-03 03:03:00,91.8,60.0,29.42,WNW,293,6.5,8.7,35,0.00,,,0.00,WUHU216HW,2013-08-03 00:03:00,
2013-08-03 03:08:00,91.8,59.3,29.42,West,270,5.6,9.6,34,0.00,,,0.00,WUHU216HW,2013-08-03 00:08:00,
2013-08-03 03:13:00,91.8,59.3,29.43,West,270,6.0,9.6,34,0.00,,,0.00,WUHU216HW,2013-08-03 00:13:00,
2013-08-03 03:18:00,92.0,59.4,29.43,West,270,9.2,9.8,34,0.00,,,0.00,WUHU216HW,2013-08-03 00:18:00,
2013-08-03 03:23:00,91.8,59.3,29.43,West,270,8.9,9.8,34,0.00,,,0.00,WUHU216HW,2013-08-03 00:23:00,
2013-08-03 03:28:00,91.8,60.0,29.43,West,270,10.5,10.5,35,0.00,,,0.00,WUHU216HW,2013-08-03 00:28:00,
2013-08-03 03:33:00,91.8,60.0,29.43,WNW,293,6.9,12.3,35,0.00,,,0.00,WUHU216HW,2013-08-03 00:33:00,
2013-08-03 03:38:00,91.8,60.8,29.43,West,270,11.4,12.3,36,0.00,,,0.00,WUHU216HW,2013-08-03 00:38:00,
2013-08-03 03:43:00,91.6,60.8,29.43,West,270,7.6,12.1,36,0.00,,,0.00,WUHU216HW,2013-08-03 00:43:00,
2013-08-03 03:48:00,91.4,60.6,29.43,NW,315,9.2,11.4,36,0.00,,,0.00,WUHU216HW,2013-08-03 00:48:00,
2013-08-03 03:53:00,91.4,61.4,29.42,WNW,293,7.2,9.6,37,0.00,,,0.00,WUHU216HW,2013-08-03 00:53:00,
2013-08-03 03:58:00,91.1,61.8,29.42,West,270,7.2,9.8,38,0.00,,,0.00,WUHU216HW,2013-08-03 00:58:00,
2013-08-03 04:03:00,91.3,62.0,29.43,WNW,293,7.6,9.8,38,0.00,,,0.00,WUHU216HW,2013-08-03 01:03:00,
2013-08-03 04:08:00,91.1,61.0,29.43,WNW,293,7.6,9.8,37,0.00,,,0.00,WUHU216HW,2013-08-03 01:08:00,
2013-08-03 04:13:00,91.3,60.4,29.43,WNW,293,8.5,9.8,36,0.00,,,0.00,WUHU216HW,2013-08-03 01:13:00,
2013-08-03 04:18:00,91.4,60.6,29.43,West,270,8.9,9.2,36,0.00,,,0.00,WUHU216HW,2013-08-03 01:18:00,
2013-08-03 04:23:00,91.4,60.6,29.43,WNW,293,7.2,10.3,36,0.00,,,0.00,WUHU216HW,2013-08-03 01:23:00,
2013-08-03 04:28:00,91.8,60.0,29.43,WNW,293,5.8,10.3,35,0.00,,,0.00,WUHU216HW,2013-08-03 01:28:00,
2013-08-03 04:33:00,92.0,60.2,29.44,NW,315,9.8,10.5,35,0.00,,,0.00,WUHU216HW,2013-08-03 01:33:00,
2013-08-03 04:38:00,92.3,60.5,29.44,West,270,13.0,13.0,35,0.00,,,0.00,WUHU216HW,2013-08-03 01:38:00,
2013-08-03 04:43:00,92.5,60.7,29.44,West,270,8.1,13.0,35,0.00,,,0.00,WUHU216HW,2013-08-03 01:43:00,
2013-08-03 04:48:00,92.5,61.5,29.44,WNW,293,9.4,13.0,36,0.00,,,0.00,WUHU216HW,2013-08-03 01:48:00,
2013-08-03 04:53:00,92.9,61.8,29.44,NW,315,8.5,11.0,36,0.00,,,0.00,WUHU216HW,2013-08-03 01:53:00,
2013-08-03 04:58:00,93.1,61.9,29.44,NNW,338,8.9,11.4,36,0.00,,,0.00,WUHU216HW,2013-08-03 01:58:00,
2013-08-03 05:03:00,93.1,62.7,29.44,NNW,338,8.1,11.4,37,0.00,,,0.00,WUHU216HW,2013-08-03 02:03:00,
2013-08-03 05:08:00,92.9,63.4,29.45,WNW,293,6.9,11.2,38,0.00,,,0.00,WUHU216HW,2013-08-03 02:08:00,
2013-08-03 05:14:00,92.7,63.3,29.45,NNW,338,8.9,10.1,38,0.00,,,0.00,WUHU216HW,2013-08-03 02:14:00,
2013-08-03 05:18:00,92.7,64.1,29.45,West,270,7.6,10.1,39,0.00,,,0.00,WUHU216HW,2013-08-03 02:18:00,
2013-08-03 05:24:00,92.5,63.9,29.45,West,270,6.7,9.8,39,0.00,,,0.00,WUHU216HW,2013-08-03 02:24:00,
2013-08-03 05:29:00,92.5,63.9,29.45,NW,315,8.9,10.7,39,0.00,,,0.00,WUHU216HW,2013-08-03 02:29:00,
2013-08-03 05:34:00,92.5,64.7,29.45,WNW,293,8.1,11.4,40,0.00,,,0.00,WUHU216HW,2013-08-03 02:34:00,
2013-08-03 05:39:00,92.5,64.7,29.45,West,270,8.5,11.4,40,0.00,,,0.00,WUHU216HW,2013-08-03 02:39:00,
2013-08-03 05:43:00,92.5,64.7,29.45,WNW,293,11.0,11.9,40,0.00,,,0.00,WUHU216HW,2013-08-03 02:43:00,
2013-08-03 05:44:00,92.5,64.7,29.45,WNW,293,11.0,11.9,40,0.00,,,0.00,WUHU216HW,2013-08-03 02:44:00,
2013-08-03 05:49:00,92.5,65.3,29.46,WNW,293,9.4,11.9,41,0.00,,,0.00,WUHU216HW,2013-08-03 02:49:00,
2013-08-03 05:54:00,92.5,65.3,29.46,West,270,9.8,11.6,41,0.00,,,0.00,WUHU216HW,2013-08-03 02:54:00,
2013-08-03 05:59:00,92.5,66.0,29.46,West,270,8.7,11.6,42,0.00,,,0.00,WUHU216HW,2013-08-03 02:59:00,
2013-08-03 06:04:00,92.7,66.8,29.46,WNW,293,6.9,11.4,43,0.00,,,0.00,WUHU216HW,2013-08-03 03:04:00,
2013-08-03 06:09:00,92.7,66.8,29.46,NW,315,5.8,11.4,43,0.00,,,0.00,WUHU216HW,2013-08-03 03:09:00,
2013-08-03 06:14:00,92.7,66.8,29.46,NW,315,9.2,11.4,43,0.00,,,0.00,WUHU216HW,2013-08-03 03:14:00,
2013-08-03 06:19:00,92.9,67.0,29.46,WNW,293,7.4,11.4,43,0.00,,,0.00,WUHU216HW,2013-08-03 03:19:00,
2013-08-03 06:24:00,93.1,67.2,29.46,West,270,7.4,11.4,43,0.00,,,0.00,WUHU216HW,2013-08-03 03:24:00,
2013-08-03 06:29:00,93.2,67.3,29.46,WNW,293,9.6,11.4,43,0.00,,,0.00,WUHU216HW,2013-08-03 03:29:00,
2013-08-03 06:34:00,93.6,68.3,29.46,WNW,293,9.8,9.8,44,0.00,,,0.00,WUHU216HW,2013-08-03 03:34:00,
2013-08-03 06:39:00,93.8,68.4,29.46,WNW,293,9.2,11.0,44,0.00,,,0.00,WUHU216HW,2013-08-03 03:39:00,
2013-08-03 06:44:00,94.1,68.1,29.47,NW,315,7.2,13.2,43,0.00,,,0.00,WUHU216HW,2013-08-03 03:44:00,
2013-08-03 06:49:00,94.5,68.5,29.47,NW,315,7.4,13.2,43,0.00,,,0.00,WUHU216HW,2013-08-03 03:49:00,
2013-08-03 06:54:00,94.5,68.5,29.47,NNW,338,12.1,12.1,43,0.00,,,0.00,WUHU216HW,2013-08-03 03:54:00,
2013-08-03 06:59:00,95.0,67.6,29.47,NW,315,10.3,15.4,41,0.00,,,0.00,WUHU216HW,2013-08-03 03:59:00,
2013-08-03 07:01:00,95.2,67.8,29.47,NW,315,9.6,15.4,41,0.00,,,0.00,WUHU216HW,2013-08-03 04:01:00,
2013-08-03 07:02:00,95.2,67.8,29.47,NW,315,8.9,15.4,41,0.00,,,0.00,WUHU216HW,2013-08-03 04:02:00,
2013-08-03 07:07:00,95.8,67.6,29.47,North,0,9.2,12.3,40,0.00,,,0.00,WUHU216HW,2013-08-03 04:07:00,
2013-08-03 07:12:00,96.1,67.2,29.47,WNW,293,13.2,13.2,39,0.00,,,0.00,WUHU216HW,2013-08-03 04:12:00,
2013-08-03 07:17:00,96.7,65.1,29.47,NW,315,9.6,13.6,36,0.00,,,0.00,WUHU216HW,2013-08-03 04:17:00,
2013-08-03 07:22:00,97.2,64.8,29.47,WNW,293,7.8,13.6,35,0.00,,,0.00,WUHU216HW,2013-08-03 04:22:00,
2013-08-03 07:27:00,97.6,64.3,29.47,NW,315,7.6,16.1,34,0.00,,,0.00,WUHU216HW,2013-08-03 04:27:00,
2013-08-03 07:32:00,97.7,65.3,29.47,NNW,338,10.5,16.1,35,0.00,,,0.00,WUHU216HW,2013-08-03 04:32:00,
2013-08-03 07:37:00,97.7,66.1,29.47,NW,315,14.3,15.7,36,0.00,,,0.00,WUHU216HW,2013-08-03 04:37:00,
2013-08-03 07:42:00,97.6,65.9,29.47,NW,315,13.0,16.3,36,0.00,,,0.00,WUHU216HW,2013-08-03 04:42:00,
2013-08-03 07:47:00,97.9,65.4,29.47,NW,315,13.4,16.3,35,0.00,,,0.00,WUHU216HW,2013-08-03 04:47:00,
2013-08-03 07:52:00,98.5,65.1,29.47,ENE,68,9.2,19.0,34,0.00,,,0.00,WUHU216HW,2013-08-03 04:52:00,
2013-08-03 07:57:00,98.8,64.5,29.47,NNW,338,12.5,19.0,33,0.00,,,0.00,WUHU216HW,2013-08-03 04:57:00,
2013-08-03 08:02:00,99.2,64.1,29.48,NW,315,7.2,15.2,32,0.00,,,0.00,WUHU216HW,2013-08-03 05:02:00,
2013-08-03 08:07:00,99.5,65.3,29.47,SW,225,10.5,13.4,33,0.00,,,0.00,WUHU216HW,2013-08-03 05:07:00,
2013-08-03 08:12:00,99.7,64.5,29.47,NW,315,9.2,14.1,32,0.00,,,0.00,WUHU216HW,2013-08-03 05:12:00,
2013-08-03 08:17:00,99.9,64.7,29.47,NNW,338,13.2,17.2,32,0.00,,,0.00,WUHU216HW,2013-08-03 05:17:00,
2013-08-03 08:22:00,100.1,65.7,29.47,WNW,293,9.4,17.2,33,0.00,,,0.00,WUHU216HW,2013-08-03 05:22:00,
2013-08-03 08:27:00,99.9,65.5,29.47,WSW,248,11.6,17.2,33,0.00,,,0.00,WUHU216HW,2013-08-03 05:27:00,
2013-08-03 08:32:00,100.1,64.9,29.48,NW,315,13.0,17.2,32,0.00,,,0.00,WUHU216HW,2013-08-03 05:32:00,
2013-08-03 08:37:00,100.3,65.9,29.47,NNE,23,9.2,15.4,33,0.00,,,0.00,WUHU216HW,2013-08-03 05:37:00,
2013-08-03 08:42:00,100.3,65.1,29.47,NW,315,8.9,17.0,32,0.00,,,0.00,WUHU216HW,2013-08-03 05:42:00,
2013-08-03 08:47:00,100.4,65.2,29.47,NW,315,12.3,17.9,32,0.00,,,0.00,WUHU216HW,2013-08-03 05:47:00,
2013-08-03 08:52:00,100.6,64.5,29.47,NNW,338,14.3,18.1,31,0.00,,,0.00,WUHU216HW,2013-08-03 05:52:00,
2013-08-03 08:57:00,100.6,63.7,29.47,NW,315,13.9,19.0,30,0.00,,,0.00,WUHU216HW,2013-08-03 05:57:00,
2013-08-03 09:02:00,101.2,65.0,29.47,WNW,293,13.2,19.0,31,0.00,,,0.00,WUHU216HW,2013-08-03 06:02:00,
2013-08-03 09:07:00,101.2,65.0,29.47,NNW,338,11.4,19.5,31,0.00,,,0.00,WUHU216HW,2013-08-03 06:07:00,
2013-08-03 09:12:00,101.2,64.1,29.47,NNW,338,11.4,19.5,30,0.00,,,0.00,WUHU216HW,2013-08-03 06:12:00,
2013-08-03 09:17:00,101.5,64.5,29.47,NNW,338,4.9,15.9,30,0.00,,,0.00,WUHU216HW,2013-08-03 06:17:00,
2013-08-03 09:22:00,101.9,63.5,29.47,NW,315,14.3,16.6,29,0.00,,,0.00,WUHU216HW,2013-08-03 06:22:00,
2013-08-03 09:27:00,101.9,63.5,29.47,NNW,338,11.2,16.6,29,0.00,,,0.00,WUHU216HW,2013-08-03 06:27:00,
2013-08-03 09:32:00,102.1,62.6,29.47,NW,315,14.3,16.8,28,0.00,,,0.00,WUHU216HW,2013-08-03 06:32:00,
2013-08-03 09:37:00,102.2,61.6,29.47,NW,315,11.4,17.2,27,0.00,,,0.00,WUHU216HW,2013-08-03 06:37:00,
2013-08-03 09:42:00,102.6,61.9,29.47,NNW,338,9.8,17.2,27,0.00,,,0.00,WUHU216HW,2013-08-03 06:42:00,
2013-08-03 09:47:00,103.3,60.2,29.47,NNW,338,13.6,16.1,25,0.00,,,0.00,WUHU216HW,2013-08-03 06:47:00,
2013-08-03 09:52:00,103.3,59.0,29.47,NNW,338,14.5,17.4,24,0.00,,,0.00,WUHU216HW,2013-08-03 06:52:00,
2013-08-03 09:57:00,103.9,59.6,29.47,North,0,12.1,17.4,24,0.00,,,0.00,WUHU216HW,2013-08-03 06:57:00,
2013-08-03 10:02:00,103.9,58.4,29.46,NW,315,13.4,15.0,23,0.00,,,0.00,WUHU216HW,2013-08-03 07:02:00,
2013-08-03 10:07:00,104.4,57.7,29.46,WNW,293,13.2,15.0,22,0.00,,,0.00,WUHU216HW,2013-08-03 07:07:00,
2013-08-03 10:12:00,104.6,57.8,29.47,NW,315,6.7,16.1,22,0.00,,,0.00,WUHU216HW,2013-08-03 07:12:00,
2013-08-03 10:17:00,105.3,58.4,29.46,North,0,9.8,16.1,22,0.00,,,0.00,WUHU216HW,2013-08-03 07:17:00,
2013-08-03 10:22:00,105.1,58.2,29.46,North,0,10.7,14.5,22,0.00,,,0.00,WUHU216HW,2013-08-03 07:22:00,
2013-08-03 10:27:00,105.5,58.5,29.46,NNW,338,11.4,14.5,22,0.00,,,0.00,WUHU216HW,2013-08-03 07:27:00,
2013-08-03 10:32:00,105.3,59.6,29.46,NNW,338,7.2,14.5,23,0.00,,,0.00,WUHU216HW,2013-08-03 07:32:00,
2013-08-03 10:37:00,105.3,58.4,29.46,NNE,23,8.9,17.2,22,0.00,,,0.00,WUHU216HW,2013-08-03 07:37:00,
2013-08-03 10:42:00,105.5,58.5,29.46,North,0,9.2,20.1,22,0.00,,,0.00,WUHU216HW,2013-08-03 07:42:00,
2013-08-03 10:47:00,105.7,58.7,29.46,North,0,13.2,20.1,22,0.00,,,0.00,WUHU216HW,2013-08-03 07:47:00,
2013-08-03 10:52:00,105.5,58.5,29.46,NW,315,15.4,17.0,22,0.00,,,0.00,WUHU216HW,2013-08-03 07:52:00,
2013-08-03 10:57:00,105.7,56.3,29.46,North,0,9.2,21.5,20,0.00,,,0.00,WUHU216HW,2013-08-03 07:57:00,
2013-08-03 11:02:00,106.0,56.7,29.45,NNE,23,10.5,21.5,20,0.00,,,0.00,WUHU216HW,2013-08-03 08:02:00,
2013-08-03 11:07:00,106.0,56.7,29.45,North,0,10.5,17.4,20,0.00,,,0.00,WUHU216HW,2013-08-03 08:07:00,
2013-08-03 11:12:00,106.2,58.0,29.45,North,0,7.6,15.0,21,0.00,,,0.00,WUHU216HW,2013-08-03 08:12:00,
2013-08-03 11:17:00,105.8,56.5,29.46,NNW,338,8.3,18.3,20,0.00,,,0.00,WUHU216HW,2013-08-03 08:17:00,
2013-08-03 11:22:00,106.2,58.0,29.45,WNW,293,14.3,18.3,21,0.00,,,0.00,WUHU216HW,2013-08-03 08:22:00,
2013-08-03 11:27:00,106.6,57.2,29.45,NNE,23,11.6,17.2,20,0.00,,,0.00,WUHU216HW,2013-08-03 08:27:00,
2013-08-03 11:32:00,106.7,59.7,29.45,NW,315,11.2,17.2,22,0.00,,,0.00,WUHU216HW,2013-08-03 08:32:00,
2013-08-03 11:37:00,106.7,59.7,29.46,NNE,23,10.5,16.3,22,0.00,,,0.00,WUHU216HW,2013-08-03 08:37:00,
2013-08-03 11:42:00,106.6,59.5,29.46,NNE,23,9.8,18.6,22,0.00,,,0.00,WUHU216HW,2013-08-03 08:42:00,
2013-08-03 11:47:00,106.7,55.5,29.46,North,0,16.3,18.6,19,0.00,,,0.00,WUHU216HW,2013-08-03 08:47:00,
2013-08-03 11:52:00,106.9,59.8,29.45,NW,315,11.4,18.3,22,0.00,,,0.00,WUHU216HW,2013-08-03 08:52:00,
2013-08-03 11:57:00,106.9,62.1,29.45,North,0,7.6,20.6,24,0.00,,,0.00,WUHU216HW,2013-08-03 08:57:00,
2013-08-03 12:02:00,107.3,59.0,29.45,NNE,23,4.7,20.6,21,0.00,,,0.00,WUHU216HW,2013-08-03 09:02:00,
2013-08-03 12:07:00,107.5,62.6,29.45,ENE,68,11.6,18.6,24,0.00,,,0.00,WUHU216HW,2013-08-03 09:07:00,
2013-08-03 12:12:00,106.9,63.3,29.45,NE,45,12.8,18.6,25,0.00,,,0.00,WUHU216HW,2013-08-03 09:12:00,
2013-08-03 12:17:00,106.7,63.1,29.45,ESE,113,16.3,19.5,25,0.00,,,0.00,WUHU216HW,2013-08-03 09:17:00,
2013-08-03 12:22:00,106.7,63.1,29.45,NE,45,7.6,19.5,25,0.00,,,0.00,WUHU216HW,2013-08-03 09:22:00,
2013-08-03 12:27:00,106.7,64.3,29.45,North,0,10.7,16.6,26,0.00,,,0.00,WUHU216HW,2013-08-03 09:27:00,
2013-08-03 12:32:00,106.4,63.9,29.44,NNE,23,11.2,19.2,26,0.00,,,0.00,WUHU216HW,2013-08-03 09:32:00,
2013-08-03 12:37:00,106.4,62.7,29.44,NNE,23,11.6,19.2,25,0.00,,,0.00,WUHU216HW,2013-08-03 09:37:00,
2013-08-03 12:42:00,106.2,62.7,29.44,NNW,338,8.9,18.6,25,0.00,,,0.00,WUHU216HW,2013-08-03 09:42:00,
2013-08-03 12:47:00,106.6,62.9,29.44,NNE,23,13.4,18.6,25,0.00,,,0.00,WUHU216HW,2013-08-03 09:47:00,
2013-08-03 12:52:00,106.7,61.9,29.44,NNE,23,11.9,17.9,24,0.00,,,0.00,WUHU216HW,2013-08-03 09:52:00,
2013-08-03 12:57:00,106.7,63.1,29.44,NNE,23,9.4,19.2,25,0.00,,,0.00,WUHU216HW,2013-08-03 09:57:00,
2013-08-03 13:02:00,106.9,63.3,29.43,ENE,68,10.3,20.8,25,0.00,,,0.00,WUHU216HW,2013-08-03 10:02:00,
2013-08-03 13:07:00,106.6,64.1,29.43,North,0,23.3,23.3,26,0.00,,,0.00,WUHU216HW,2013-08-03 10:07:00,
2013-08-03 13:12:00,106.0,64.7,29.43,NNE,23,14.8,23.3,27,0.00,,,0.00,WUHU216HW,2013-08-03 10:12:00,
2013-08-03 13:17:00,105.8,66.9,29.43,NW,315,10.1,23.3,29,0.00,,,0.00,WUHU216HW,2013-08-03 10:17:00,
2013-08-03 13:22:00,105.3,68.5,29.43,NE,45,3.4,20.4,31,0.00,,,0.00,WUHU216HW,2013-08-03 10:22:00,
2013-08-03 13:27:00,105.1,68.3,29.43,North,0,13.4,20.8,31,0.00,,,0.00,WUHU216HW,2013-08-03 10:27:00,
2013-08-03 13:32:00,105.1,68.3,29.43,NNE,23,8.5,20.8,31,0.00,,,0.00,WUHU216HW,2013-08-03 10:32:00,
2013-08-03 13:37:00,105.3,67.6,29.43,North,0,14.5,21.3,30,0.00,,,0.00,WUHU216HW,2013-08-03 10:37:00,
2013-08-03 13:42:00,105.3,67.6,29.43,North,0,7.2,21.3,30,0.00,,,0.00,WUHU216HW,2013-08-03 10:42:00,
2013-08-03 13:47:00,105.3,67.6,29.43,NNE,23,7.6,17.2,30,0.00,,,0.00,WUHU216HW,2013-08-03 10:47:00,
2013-08-03 13:52:00,105.5,67.8,29.43,NNE,23,12.1,17.2,30,0.00,,,0.00,WUHU216HW,2013-08-03 10:52:00,
2013-08-03 13:57:00,105.8,66.9,29.43,NNW,338,5.4,17.2,29,0.00,,,0.00,WUHU216HW,2013-08-03 10:57:00,
2013-08-03 14:02:00,106.0,64.7,29.42,NNW,338,4.7,17.2,27,0.00,,,0.00,WUHU216HW,2013-08-03 11:02:00,
2013-08-03 14:07:00,106.4,63.9,29.42,NNE,23,8.9,13.0,26,0.00,,,0.00,WUHU216HW,2013-08-03 11:07:00,
2013-08-03 14:12:00,106.2,63.7,29.42,North,0,6.9,13.0,26,0.00,,,0.00,WUHU216HW,2013-08-03 11:12:00,
2013-08-03 14:17:00,106.0,62.5,29.42,NNE,23,11.4,14.3,25,0.00,,,0.00,WUHU216HW,2013-08-03 11:17:00,
2013-08-03 14:22:00,106.0,61.3,29.42,NNW,338,8.3,14.3,24,0.00,,,0.00,WUHU216HW,2013-08-03 11:22:00,
2013-08-03 14:27:00,106.2,60.3,29.42,North,0,7.8,14.3,23,0.00,,,0.00,WUHU216HW,2013-08-03 11:27:00,
2013-08-03 14:32:00,106.4,59.3,29.42,NNW,338,9.6,17.2,22,0.00,,,0.00,WUHU216HW,2013-08-03 11:32:00,
2013-08-03 14:37:00,106.2,59.1,29.41,NNW,338,11.4,17.2,22,0.00,,,0.00,WUHU216HW,2013-08-03 11:37:00,
2013-08-03 14:42:00,106.4,59.3,29.41,North,0,13.9,16.1,22,0.00,,,0.00,WUHU216HW,2013-08-03 11:42:00,
2013-08-03 14:47:00,106.4,59.3,29.41,NW,315,9.8,16.1,22,0.00,,,0.00,WUHU216HW,2013-08-03 11:47:00,
2013-08-03 14:52:00,106.4,57.0,29.41,North,0,15.0,15.7,20,0.00,,,0.00,WUHU216HW,2013-08-03 11:52:00,
2013-08-03 14:58:00,106.6,59.5,29.41,North,0,11.0,19.2,22,0.00,,,0.00,WUHU216HW,2013-08-03 11:58:00,
2013-08-03 15:03:00,106.7,57.3,29.41,NNE,23,19.2,19.2,20,0.00,,,0.00,WUHU216HW,2013-08-03 12:03:00,
2013-08-03 15:08:00,106.9,57.5,29.41,NNW,338,14.3,19.2,20,0.00,,,0.00,WUHU216HW,2013-08-03 12:08:00,
2013-08-03 15:12:00,107.3,60.1,29.40,North,0,13.0,19.2,22,0.00,,,0.00,WUHU216HW,2013-08-03 12:12:00,
2013-08-03 15:18:00,107.8,58.3,29.40,NNE,23,8.5,14.3,20,0.00,,,0.00,WUHU216HW,2013-08-03 12:18:00,
2013-08-03 15:23:00,107.6,56.3,29.41,North,0,12.5,15.4,19,0.00,,,0.00,WUHU216HW,2013-08-03 12:23:00,
2013-08-03 15:28:00,108.0,56.6,29.41,NNE,23,9.8,15.4,19,0.00,,,0.00,WUHU216HW,2013-08-03 12:28:00,
2013-08-03 15:33:00,108.0,56.6,29.41,NW,315,6.0,21.3,19,0.00,,,0.00,WUHU216HW,2013-08-03 12:33:00,
2013-08-03 15:38:00,108.0,56.6,29.41,NNW,338,10.3,21.3,19,0.00,,,0.00,WUHU216HW,2013-08-03 12:38:00,
2013-08-03 15:43:00,108.0,54.7,29.41,NNW,338,17.4,17.4,18,0.00,,,0.00,WUHU216HW,2013-08-03 12:43:00,
2013-08-03 15:48:00,107.8,54.5,29.41,ENE,68,6.9,17.4,18,0.00,,,0.00,WUHU216HW,2013-08-03 12:48:00,
2013-08-03 15:52:00,107.5,45.0,29.41,East,90,8.5,17.7,13,0.00,,,0.00,WUHU216HW,2013-08-03 12:52:00,
2013-08-03 15:58:00,107.5,46.9,29.40,NNW,338,15.9,21.9,14,0.00,,,0.00,WUHU216HW,2013-08-03 12:58:00,
2013-08-03 16:03:00,108.2,47.4,29.41,WNW,293,6.0,21.9,14,0.00,,,0.00,WUHU216HW,2013-08-03 13:03:00,
2013-08-03 16:08:00,108.0,45.5,29.41,NW,315,16.3,21.7,13,0.00,,,0.00,WUHU216HW,2013-08-03 13:08:00,
2013-08-03 16:13:00,107.3,46.7,29.40,NW,315,17.4,21.7,14,0.00,,,0.00,WUHU216HW,2013-08-03 13:13:00,
2013-08-03 16:18:00,107.1,46.5,29.40,NW,315,11.6,21.7,14,0.00,,,0.00,WUHU216HW,2013-08-03 13:18:00,
2013-08-03 16:23:00,107.1,46.5,29.40,NNW,338,6.3,21.7,14,0.00,,,0.00,WUHU216HW,2013-08-03 13:23:00,
2013-08-03 16:28:00,107.3,44.8,29.40,NNW,338,17.2,20.8,13,0.00,,,0.00,WUHU216HW,2013-08-03 13:28:00,
2013-08-03 16:33:00,107.5,45.0,29.40,NNW,338,16.3,20.8,13,0.00,,,0.00,WUHU216HW,2013-08-03 13:33:00,
2013-08-03 16:38:00,107.6,45.2,29.40,North,0,10.5,17.2,13,0.00,,,0.00,WUHU216HW,2013-08-03 13:38:00,
2013-08-03 16:43:00,107.8,45.3,29.40,NNW,338,8.1,14.1,13,0.00,,,0.00,WUHU216HW,2013-08-03 13:43:00,
2013-08-03 16:48:00,107.8,45.3,29.41,NNE,23,10.1,13.4,13,0.00,,,0.00,WUHU216HW,2013-08-03 13:48:00,
2013-08-03 16:53:00,107.6,47.0,29.41,North,0,11.2,15.4,14,0.00,,,0.00,WUHU216HW,2013-08-03 13:53:00,
2013-08-03 16:58:00,107.5,50.6,29.41,NNW,338,6.5,15.4,16,0.00,,,0.00,WUHU216HW,2013-08-03 13:58:00,
2013-08-03 17:03:00,107.1,50.2,29.41,NNE,23,8.3,12.1,16,0.00,,,0.00,WUHU216HW,2013-08-03 14:03:00,
2013-08-03 17:08:00,106.7,51.8,29.41,North,0,7.6,11.4,17,0.00,,,0.00,WUHU216HW,2013-08-03 14:08:00,
2013-08-03 17:13:00,106.6,53.5,29.41,NNE,23,6.9,9.6,18,0.00,,,0.00,WUHU216HW,2013-08-03 14:13:00,
2013-08-03 17:18:00,106.4,53.3,29.41,NNW,338,7.6,10.7,18,0.00,,,0.00,WUHU216HW,2013-08-03 14:18:00,
2013-08-03 17:23:00,105.8,52.8,29.41,North,0,11.2,15.9,18,0.00,,,0.00,WUHU216HW,2013-08-03 14:23:00,
2013-08-03 17:28:00,104.8,53.8,29.41,NW,315,10.5,15.9,19,0.00,,,0.00,WUHU216HW,2013-08-03 14:28:00,
2013-08-03 17:33:00,104.6,53.7,29.41,NNW,338,6.3,14.3,19,0.00,,,0.00,WUHU216HW,2013-08-03 14:33:00,
2013-08-03 17:38:00,104.0,51.5,29.42,NNW,338,9.2,14.3,18,0.00,,,0.00,WUHU216HW,2013-08-03 14:38:00,
2013-08-03 17:43:00,103.7,53.0,29.42,NNW,338,4.3,12.1,19,0.00,,,0.00,WUHU216HW,2013-08-03 14:43:00,
2013-08-03 17:48:00,103.3,52.7,29.42,West,270,8.7,9.8,19,0.00,,,0.00,WUHU216HW,2013-08-03 14:48:00,
2013-08-03 17:53:00,103.1,50.8,29.42,NW,315,8.3,11.4,18,0.00,,,0.00,WUHU216HW,2013-08-03 14:53:00,
2013-08-03 17:58:00,103.0,50.6,29.42,WNW,293,6.5,11.4,18,0.00,,,0.00,WUHU216HW,2013-08-03 14:58:00,
2013-08-03 18:03:00,103.0,47.0,29.42,NW,315,15.7,15.7,16,0.00,,,0.00,WUHU216HW,2013-08-03 15:03:00,
2013-08-03 18:08:00,102.8,46.8,29.42,NNW,338,6.7,15.7,16,0.00,,,0.00,WUHU216HW,2013-08-03 15:08:00,
2013-08-03 18:13:00,102.8,46.8,29.42,NNW,338,8.9,11.9,16,0.00,,,0.00,WUHU216HW,2013-08-03 15:13:00,
2013-08-03 18:18:00,102.6,48.5,29.42,North,0,6.7,12.3,17,0.00,,,0.00,WUHU216HW,2013-08-03 15:18:00,
2013-08-03 18:23:00,102.4,48.3,29.42,NNE,23,4.5,12.3,17,0.00,,,0.00,WUHU216HW,2013-08-03 15:23:00,
2013-08-03 18:28:00,102.1,49.9,29.42,North,0,5.1,8.3,18,0.00,,,0.00,WUHU216HW,2013-08-03 15:28:00,
2013-08-03 18:33:00,101.9,51.6,29.42,NNW,338,5.6,11.2,19,0.00,,,0.00,WUHU216HW,2013-08-03 15:33:00,
2013-08-03 18:38:00,101.5,51.2,29.43,NNW,338,3.8,11.2,19,0.00,,,0.00,WUHU216HW,2013-08-03 15:38:00,
2013-08-03 18:43:00,101.2,52.7,29.43,North,0,3.4,12.1,20,0.00,,,0.00,WUHU216HW,2013-08-03 15:43:00,
2013-08-03 18:48:00,101.0,52.7,29.43,NW,315,6.3,12.1,20,0.00,,,0.00,WUHU216HW,2013-08-03 15:48:00,
2013-08-03 18:53:00,100.8,52.5,29.43,NNW,338,5.1,10.1,20,0.00,,,0.00,WUHU216HW,2013-08-03 15:53:00,
2013-08-03 18:58:00,100.8,52.5,29.43,NNE,23,6.0,10.1,20,0.00,,,0.00,WUHU216HW,2013-08-03 15:58:00,
2013-08-03 19:03:00,100.6,52.4,29.43,NNE,23,6.3,8.3,20,0.00,,,0.00,WUHU216HW,2013-08-03 16:03:00,
2013-08-03 19:08:00,100.4,52.2,29.44,NNW,338,6.9,7.6,20,0.00,,,0.00,WUHU216HW,2013-08-03 16:08:00,
2013-08-03 19:13:00,100.3,52.0,29.44,North,0,3.8,7.6,20,0.00,,,0.00,WUHU216HW,2013-08-03 16:13:00,
2013-08-03 19:18:00,100.3,50.2,29.44,North,0,6.7,7.4,19,0.00,,,0.00,WUHU216HW,2013-08-03 16:18:00,
2013-08-03 19:23:00,100.1,50.1,29.45,North,0,4.9,9.6,19,0.00,,,0.00,WUHU216HW,2013-08-03 16:23:00,
2013-08-03 19:28:00,100.1,51.9,29.45,NNW,338,4.3,9.6,20,0.00,,,0.00,WUHU216HW,2013-08-03 16:28:00,
2013-08-03 19:33:00,99.9,51.8,29.45,NNW,338,3.8,6.3,20,0.00,,,0.00,WUHU216HW,2013-08-03 16:33:00,
2013-08-03 19:38:00,99.7,51.7,29.45,North,0,5.4,6.3,20,0.00,,,0.00,WUHU216HW,2013-08-03 16:38:00,
2013-08-03 19:43:00,99.7,53.9,29.45,NNE,23,4.7,7.6,22,0.00,,,0.00,WUHU216HW,2013-08-03 16:43:00,
2013-08-03 19:48:00,99.4,58.1,29.45,North,0,5.8,8.3,26,0.00,,,0.00,WUHU216HW,2013-08-03 16:48:00,
2013-08-03 19:53:00,98.5,60.7,29.45,NW,315,6.5,8.3,29,0.00,,,0.00,WUHU216HW,2013-08-03 16:53:00,
2013-08-03 19:58:00,98.1,61.5,29.45,NNW,338,5.6,7.6,30,0.00,,,0.00,WUHU216HW,2013-08-03 16:58:00,
2013-08-03 20:03:00,97.7,61.9,29.45,NNE,23,8.5,8.5,31,0.00,,,0.00,WUHU216HW,2013-08-03 17:03:00,
2013-08-03 20:08:00,97.6,61.7,29.45,North,0,5.4,8.5,31,0.00,,,0.00,WUHU216HW,2013-08-03 17:08:00,
2013-08-03 20:13:00,97.6,59.9,29.45,NNW,338,7.6,8.5,29,0.00,,,0.00,WUHU216HW,2013-08-03 17:13:00,
2013-08-03 20:18:00,97.7,57.8,29.45,North,0,3.6,7.6,27,0.00,,,0.00,WUHU216HW,2013-08-03 17:18:00,
2013-08-03 20:23:00,97.9,55.7,29.45,NNW,338,5.6,7.8,25,0.00,,,0.00,WUHU216HW,2013-08-03 17:23:00,
2013-08-03 20:28:00,98.1,54.8,29.46,North,0,5.6,9.2,24,0.00,,,0.00,WUHU216HW,2013-08-03 17:28:00,
2013-08-03 20:33:00,98.3,54.9,29.47,NNE,23,4.9,9.2,24,0.00,,,0.00,WUHU216HW,2013-08-03 17:33:00,
2013-08-03 20:38:00,98.3,56.1,29.47,NNE,23,4.5,10.3,25,0.00,,,0.00,WUHU216HW,2013-08-03 17:38:00,
2013-08-03 20:43:00,98.1,58.2,29.47,NNW,338,2.7,10.3,27,0.00,,,0.00,WUHU216HW,2013-08-03 17:43:00,
2013-08-03 20:48:00,97.7,60.0,29.47,NNW,338,2.9,6.7,29,0.00,,,0.00,WUHU216HW,2013-08-03 17:48:00,
2013-08-03 20:53:00,97.4,61.7,29.47,North,0,5.1,6.7,31,0.00,,,0.00,WUHU216HW,2013-08-03 17:53:00,
2013-08-03 20:58:00,96.8,61.9,29.47,NNE,23,2.5,5.6,32,0.00,,,0.00,WUHU216HW,2013-08-03 17:58:00,
2013-08-03 21:03:00,96.8,61.1,29.47,NNW,338,2.7,6.3,31,0.00,,,0.00,WUHU216HW,2013-08-03 18:03:00,
2013-08-03 21:08:00,96.7,60.1,29.47,NNW,338,3.4,6.3,30,0.00,,,0.00,WUHU216HW,2013-08-03 18:08:00,
2013-08-03 21:13:00,96.5,60.0,29.48,NNE,23,1.8,5.4,30,0.00,,,0.00,WUHU216HW,2013-08-03 18:13:00,
2013-08-03 21:18:00,96.5,59.0,29.47,NW,315,4.7,5.6,29,0.00,,,0.00,WUHU216HW,2013-08-03 18:18:00,
2013-08-03 21:23:00,96.3,57.7,29.48,North,0,4.5,6.9,28,0.00,,,0.00,WUHU216HW,2013-08-03 18:23:00,
2013-08-03 21:28:00,96.3,56.5,29.48,North,0,4.7,6.9,27,0.00,,,0.00,WUHU216HW,2013-08-03 18:28:00,
2013-08-03 21:33:00,96.3,56.5,29.47,NNW,338,5.4,6.3,27,0.00,,,0.00,WUHU216HW,2013-08-03 18:33:00,
2013-08-03 21:38:00,96.1,56.4,29.47,NW,315,3.1,6.9,27,0.00,,,0.00,WUHU216HW,2013-08-03 18:38:00,
2013-08-03 21:43:00,96.1,56.4,29.48,NNW,338,4.7,7.8,27,0.00,,,0.00,WUHU216HW,2013-08-03 18:43:00,
2013-08-03 21:48:00,96.1,56.4,29.47,North,0,3.8,7.8,27,0.00,,,0.00,WUHU216HW,2013-08-03 18:48:00,
2013-08-03 21:53:00,96.1,56.4,29.47,North,0,4.5,7.2,27,0.00,,,0.00,WUHU216HW,2013-08-03 18:53:00,
2013-08-03 21:58:00,96.1,56.4,29.47,North,0,4.7,6.5,27,0.00,,,0.00,WUHU216HW,2013-08-03 18:58:00,
2013-08-03 22:03:00,95.9,58.5,29.47,North,0,3.1,6.3,29,0.00,,,0.00,WUHU216HW,2013-08-03 19:03:00,
2013-08-03 22:08:00,95.8,58.3,29.47,NNE,23,2.7,6.3,29,0.00,,,0.00,WUHU216HW,2013-08-03 19:08:00,
2013-08-03 22:13:00,95.6,59.3,29.47,WNW,293,4.5,4.9,30,0.00,,,0.00,WUHU216HW,2013-08-03 19:13:00,
2013-08-03 22:18:00,95.4,59.1,29.47,North,0,0.9,6.3,30,0.00,,,0.00,WUHU216HW,2013-08-03 19:18:00,
2013-08-03 22:23:00,95.4,59.9,29.47,North,0,4.0,6.3,31,0.00,,,0.00,WUHU216HW,2013-08-03 19:23:00,
2013-08-03 22:28:00,95.2,60.7,29.47,NNW,338,3.4,6.3,32,0.00,,,0.00,WUHU216HW,2013-08-03 19:28:00,
2013-08-03 22:33:00,95.0,60.5,29.47,NNE,23,3.4,6.3,32,0.00,,,0.00,WUHU216HW,2013-08-03 19:33:00,
2013-08-03 22:38:00,94.9,61.9,29.47,North,0,3.1,4.7,34,0.00,,,0.00,WUHU216HW,2013-08-03 19:38:00,
2013-08-03 22:43:00,94.7,60.9,29.47,NNE,23,5.1,5.1,33,0.00,,,0.00,WUHU216HW,2013-08-03 19:43:00,
2013-08-03 22:48:00,94.7,61.7,29.47,North,0,2.0,6.0,34,0.00,,,0.00,WUHU216HW,2013-08-03 19:48:00,
2013-08-03 22:53:00,94.7,61.7,29.47,NNW,338,2.2,6.0,34,0.00,,,0.00,WUHU216HW,2013-08-03 19:53:00,
2013-08-03 22:58:00,94.5,61.7,29.47,North,0,2.5,4.5,34,0.00,,,0.00,WUHU216HW,2013-08-03 19:58:00,
2013-08-03 23:03:00,94.5,62.5,29.47,North,0,4.7,4.7,35,0.00,,,0.00,WUHU216HW,2013-08-03 20:03:00,
2013-08-03 23:08:00,94.3,62.3,29.47,NNW,338,2.5,4.7,35,0.00,,,0.00,WUHU216HW,2013-08-03 20:08:00,
2013-08-03 23:13:00,94.1,62.9,29.47,North,0,3.4,5.4,36,0.00,,,0.00,WUHU216HW,2013-08-03 20:13:00,
2013-08-03 23:18:00,94.1,62.9,29.46,North,0,4.0,5.4,36,0.00,,,0.00,WUHU216HW,2013-08-03 20:18:00,
2013-08-03 23:23:00,94.0,64.4,29.46,NNW,338,4.0,5.1,38,0.00,,,0.00,WUHU216HW,2013-08-03 20:23:00,
2013-08-03 23:28:00,93.8,65.0,29.46,NW,315,4.9,4.9,39,0.00,,,0.00,WUHU216HW,2013-08-03 20:28:00,
2013-08-03 23:33:00,93.6,64.9,29.46,WNW,293,3.4,4.9,39,0.00,,,0.00,WUHU216HW,2013-08-03 20:33:00,
2013-08-03 23:38:00,93.2,65.3,29.46,NW,315,4.0,5.4,40,0.00,,,0.00,WUHU216HW,2013-08-03 20:38:00,
2013-08-03 23:43:00,93.2,65.3,29.46,WNW,293,2.7,5.4,40,0.00,,,0.00,WUHU216HW,2013-08-03 20:43:00,
2013-08-03 23:48:00,93.2,65.3,29.46,NW,315,1.8,4.0,40,0.00,,,0.00,WUHU216HW,2013-08-03 20:48:00,
2013-08-03 23:53:00,93.2,64.5,29.45,NW,315,0.9,3.6,39,0.00,,,0.00,WUHU216HW,2013-08-03 20:53:00,
2013-08-03 23:58:00,93.2,65.3,29.45,WNW,293,2.5,3.1,40,0.00,,,0.00,WUHU216HW,2013-08-03 20:58:00,